www.pogodaiklimat.ru
ПОГОДА в Абакане

Архив погоды в Абакане (Хакасия, Россия)

Время
(UTC), дата
01 10.01
02 10.01
03 10.01
04 10.01
05 10.01
06 10.01
07 10.01
08 10.01
09 10.01
10 10.01
11 10.01
12 10.01
13 10.01
14 10.01
15 10.01
16 10.01
17 10.01
18 10.01
19 10.01
20 10.01
21 10.01
22 10.01
23 10.01
00 11.01
01 11.01
02 11.01
03 11.01
04 11.01
05 11.01
06 11.01
07 11.01
08 11.01
09 11.01
10 11.01
11 11.01
12 11.01
13 11.01
14 11.01
15 11.01
16 11.01
17 11.01
18 11.01
19 11.01
20 11.01
21 11.01
22 11.01
23 11.01
00 12.01
01 12.01
02 12.01
03 12.01
04 12.01
05 12.01
06 12.01
07 12.01
08 12.01
09 12.01
10 12.01
11 12.01
12 12.01
13 12.01
14 12.01
15 12.01
16 12.01
17 12.01
18 12.01
19 12.01
20 12.01
21 12.01
22 12.01
23 12.01
00 13.01
01 13.01
02 13.01
03 13.01
04 13.01
05 13.01
06 13.01
07 13.01
08 13.01
09 13.01
10 13.01
11 13.01
12 13.01
13 13.01
14 13.01
15 13.01
16 13.01
17 13.01
18 13.01
19 13.01
20 13.01
21 13.01
22 13.01
23 13.01
00 14.01
01 14.01
02 14.01
03 14.01
04 14.01
05 14.01
06 14.01
07 14.01
08 14.01
09 14.01
10 14.01
11 14.01
12 14.01
13 14.01
14 14.01
15 14.01
16 14.01
17 14.01
18 14.01
19 14.01
20 14.01
21 14.01
22 14.01
23 14.01
00 15.01
01 15.01
02 15.01
03 15.01
04 15.01
05 15.01
06 15.01
07 15.01
08 15.01
09 15.01
10 15.01
11 15.01
12 15.01
13 15.01
14 15.01
15 15.01
16 15.01
17 15.01
18 15.01
19 15.01
20 15.01
21 15.01
22 15.01
23 15.01
00 16.01
01 16.01
02 16.01
03 16.01
04 16.01
05 16.01
06 16.01
07 16.01
08 16.01
09 16.01
10 16.01
11 16.01
12 16.01
13 16.01
14 16.01
15 16.01
16 16.01
17 16.01
18 16.01
19 16.01
20 16.01
21 16.01
22 16.01
23 16.01
00 17.01
01 17.01
23 31.01
Ветер
(напр.,м/с)
Видим. Явления Облачность Т
(С)
Тd
(С)
f
(%)
Тe
(С)
Тes
(С)
Комфортность P
(гПа)
Po
(гПа)
Тmin
(С)
Tmax
(С)
R
(мм)
R24
(мм)
S
(см)
ЮЗ 5 10 км нет нижн обл -6.0 -11.0 68 -13 -13 очень
холодно
1030.0 997.1
ЮЗ 7 10 км нет нижн обл -6.0 -13.0 58 -14 -14 холодно 1031.0 998.1
ЮЗ 5 н/о позёмок нет нижн обл -7.0 -14.0 57 -14 -14 тепло 1032.0 998.9
ЮЗ 3 10 км нет нижн обл -7.0 -13.0 62 -12 -12 тепло 1033.0 999.9
ЮЗ 4 10 км нет нижн обл -5.0 -13.0 53 -11 -11 тепло 1033.0 1000.1
ЮЗ 5 10 км нет нижн обл -5.0 -12.0 58 -12 -12 тепло 1033.0 1000.1
ЮЗ 7 10 км нет нижн обл -4.0 -14.0 46 -11 -11 тепло 1034.0 1001.2
ЮЗ 7 10 км нет нижн обл -5.0 -14.0 49 -13 -13 тепло 1034.0 1001.1
ЮЗ 5 10 км нет нижн обл -6.0 -14.0 53 -13 -13 тепло 1035.0 1002.0
ЮЗ 5 10 км нет нижн обл -7.0 -15.0 53 -14 -14 тепло 1036.0 1002.8
ЮЗ 3 10 км нет нижн обл -9.0 -16.0 57 -15 -15 тепло 1037.0 1003.5
ЮЗ 3 10 км нет нижн обл -10.0 -16.0 61 -16 -16 по сезону 1037.0 1003.4
ЮЗ 2 10 км нет нижн обл -12.0 -16.0 72 -17 -17 тепло 1038.0 1004.1
З 1 7000 м нет нижн обл -17.0 -20.0 77 -20 -20 тепло 1038.0 1003.4
штиль 0 7000 м нет нижн обл -15.0 -17.0 85 -15 -15 по сезону 1039.0 1004.7
Ю 1 10 км нет нижн обл -15.0 -17.0 85 -18 -18 тепло 1039.0 1004.7
СЗ 1 1400 м дым нет нижн обл -20.0 -22.0 84 -23 -23 тепло 1040.0 1005.0
З 2 2600 м дым нет нижн обл -21.0 -23.0 84 -27 -27 прохладно 1040.0 1004.8
штиль 0 3600 м дым нет нижн обл -21.0 -23.0 84 -21 -21 тепло 1040.0 1004.8
штиль 0 2300 м дым нет нижн обл -24.0 -26.0 83 -24 -24 тепло 1040.0 1004.4
Ю 1 3500 м дым нет нижн обл -21.0 -23.0 84 -24 -24 по сезону 1040.0 1004.8
ЮЗ 1 4000 м дым нет нижн обл -25.0 -28.0 76 -29 -29 по сезону 1040.0 1004.3
СЗ 2 2600 м дым нет нижн обл -26.0 -29.0 76 -33 -33 опасность
обморожения
1040.0 1004.1
С 1 н/о дым нет нижн обл -25.0 -28.0 76 -29 -29 холодно 1040.0 1004.3
штиль 0 1700 м местами туман поземный 5/5 30 м
[Frnb]
-26.0 -28.0 83 -26 -26 по сезону 1039.0 1003.2
З 1 700 м переохл. туман 8/8 60 м
[St]
-24.0 -27.0 76 -27 -27 тепло 1039.0 1003.4
штиль 0 2900 м дымка 5/5 60 м
[Frnb]
-23.0 -25.0 84 -23 -23 по сезону 1039.0 1003.6
штиль 0 2500 м дымка нет нижн обл -20.0 -23.0 77 -20 -20 тепло 1038.0 1003.0
Ю 1 1700 м дымка нет нижн обл -16.0 -18.0 85 -19 -19 тепло 1038.0 1003.6
Ю 1 5000 м дым нет нижн обл -15.0 -17.0 85 -18 -18 по сезону 1037.0 1002.7
штиль 0 5000 м дым нет нижн обл -14.0 -16.0 85 -14 -14 тепло 1036.0 1001.9
штиль 0 6000 м нет нижн обл -13.0 -17.0 72 -13 -13 тепло 1035.0 1001.1
СВ 2 4000 м дым нет нижн обл -13.0 -17.0 72 -18 -18 по сезону 1035.0 1001.1
С 2 3800 м дым нет нижн обл -16.0 -18.0 85 -21 -21 по сезону 1035.0 1000.7
СВ 1 2200 м дымка нет нижн обл -16.0 -18.0 85 -19 -19 тепло 1034.0 999.7
С 2 1600 м дымка нет нижн обл -17.0 -19.0 84 -22 -22 по сезону 1034.0 999.6
штиль 0 1700 м дымка нет нижн обл -16.0 -17.0 92 -16 -16 тепло 1033.0 998.7
штиль 0 2400 м дымка нет нижн обл -14.0 -16.0 85 -14 -14 тепло 1032.0 998.0
З 2 1800 м местами туман поземный нет нижн обл -15.0 -17.0 85 -20 -20 по сезону 1032.0 997.9
З 1 1700 м дымка нет нижн обл -16.0 -18.0 85 -19 -19 тепло 1031.0 996.8
СЗ 1 1100 м местами туман поземный нет нижн обл -17.0 -19.0 84 -20 -20 тепло 1030.0 995.7
штиль 0 1000 м местами туман поземный нет нижн обл -16.0 -18.0 85 -16 -16 по сезону 1030.0 995.8
штиль 0 1200 м дымка нет нижн обл -16.0 -18.0 85 -16 -16 тепло 1029.0 994.9
СЗ 1 1600 м дымка нет нижн обл -16.0 -18.0 85 -19 -19 тепло 1028.0 993.9
СЗ 1 2200 м дымка нет нижн обл -16.0 -18.0 85 -19 -19 по сезону 1028.0 993.9
З 1 2300 м дымка нет нижн обл -16.0 -17.0 92 -19 -19 тепло 1027.0 992.9
С 2 2500 м дымка нет нижн обл -16.0 -17.0 92 -21 -21 тепло 1027.0 992.9
С 1 3500 м дымка нет нижн обл -16.0 -17.0 92 -19 -19 по сезону 1026.0 992.0
С 1 3700 м дымка нет нижн обл -16.0 -18.0 85 -19 -19 тепло 1025.0 991.0
С 1 3600 м дымка нет нижн обл -16.0 -18.0 85 -19 -19 тепло 1025.0 991.0
С 1 3500 м дымка нет нижн обл -17.0 -19.0 84 -20 -20 по сезону 1024.0 989.9
С 1 3000 м дымка нет нижн обл -15.0 -17.0 85 -18 -18 тепло 1024.0 990.2
штиль 0 2700 м дымка нет нижн обл -13.0 -15.0 85 -13 -13 тепло 1023.0 989.5
С 1 2900 м дымка нет нижн обл -12.0 -15.0 78 -14 -14 по сезону 1022.0 988.6
С 1 9000 м нет нижн обл -11.0 -16.0 67 -13 -13 тепло 1021.0 987.8
СВ 2 6000 м нет нижн обл -12.0 -15.0 78 -17 -17 тепло 1020.0 986.7
С 2 5000 м дым нет нижн обл -12.0 -15.0 78 -17 -17 по сезону 1020.0 986.7
С 1 7000 м нет нижн обл -14.0 -16.0 85 -16 -16 тепло 1020.0 986.4
С 1 5000 м дым нет нижн обл -14.0 -17.0 78 -16 -16 тепло 1019.0 985.5
СЗ 2 6000 м дым нет нижн обл -14.0 -16.0 85 -19 -19 по сезону 1019.0 985.5
СЗ 2 5000 м дым нет нижн обл -15.0 -17.0 85 -20 -20 по сезону 1018.0 984.4
СЗ 1 4000 м дым нет нижн обл -15.0 -17.0 85 -18 -18 тепло 1018.0 984.4
З 1 5000 м дым нет нижн обл -14.0 -16.0 85 -16 -16 по сезону 1017.0 983.5
ЮЗ 1 5000 м дым нет нижн обл -14.0 -17.0 78 -16 -16 тепло 1017.0 983.5
З 1 6000 м нет нижн обл -14.0 -17.0 78 -16 -16 тепло 1017.0 983.5
З 1 5000 м дым нет нижн обл -14.0 -16.0 85 -16 -16 по сезону 1016.0 982.6
штиль 0 5000 м дым нет нижн обл -14.0 -16.0 85 -14 -14 тепло 1016.0 982.6
ЮЗ 1 5000 м дым нет нижн обл -13.0 -15.0 85 -15 -15 тепло 1016.0 982.7
С 2 9000 м нет нижн обл -12.0 -15.0 78 -17 -17 по сезону 1016.0 982.8
С 2 10 км нет нижн обл -12.0 -15.0 78 -17 -17 тепло 1016.0 982.8
С 1 10 км нет нижн обл -12.0 -15.0 78 -14 -14 тепло 1017.0 983.8
штиль 0 2900 м слаб. ливневой снег 5/5 1290 м
[Cb]
-12.0 -14.0 85 -12 -12 тепло 1017.0 983.8
С 1 2400 м слаб. ливневой снег 5/5 1110 м
[Cb]
-11.0 -13.0 85 -13 -13 тепло 1018.0 984.9
СЗ 1 2500 м слаб. ливневой снег 8/8 810 м
[Cb]
-12.0 -13.0 92 -14 -14 тепло 1018.0 984.8
СЗ 2 2200 м слаб. ливневой снег 8/8 960 м
[Cb]
-12.0 -13.0 92 -17 -17 по сезону 1018.0 984.8
С 3 3900 м слаб. ливневой снег 8/8 570 м
[Cb]
-11.0 -13.0 85 -17 -17 тепло 1019.0 985.9
С 4 5000 м слаб. ливневой снег 5/5 1380 м
[Cb]
-11.0 -14.0 78 -18 -18 тепло 1019.0 985.9
С 4 10 км слаб. ливневой снег 5/5 1500 м
[Cb]
-11.0 -14.0 78 -18 -18 по сезону 1019.0 985.9
С 4 8000 м слаб. ливневой снег 5/5 1500 м
[Cb]
-11.0 -14.0 78 -18 -18 тепло 1020.0 986.8
С 5 10 км нет нижн обл -11.0 -15.0 72 -19 -19 тепло 1020.0 986.8
С 4 10 км нет нижн обл -12.0 -16.0 72 -19 -19 по сезону 1021.0 987.7
С 5 10 км 8/8 1380 м -12.0 -16.0 72 -20 -20 по сезону 1022.0 988.6
С 3 10 км 5/5 1050 м -14.0 -17.0 78 -20 -20 тепло 1023.0 989.3
СЗ 2 5000 м дым 5/5 690 м
[Frnb]
-15.0 -18.0 78 -20 -20 по сезону 1024.0 990.2
С 3 6000 м нет нижн обл -16.0 -18.0 85 -23 -23 по сезону 1025.0 991.0
СЗ 2 2700 м дымка нет нижн обл -19.0 -21.0 84 -25 -25 тепло 1025.0 990.6
С 2 2500 м дымка нет нижн обл -20.0 -22.0 84 -26 -26 прохладно 1026.0 991.4
штиль 0 3000 м дымка 5/5 390 м -21.0 -23.0 84 -21 -21 по сезону 1026.0 991.3
З 1 6000 м 2/2 90 м -23.0 -26.0 76 -26 -26 тепло 1027.0 992.0
штиль 0 6000 м дым 2/2 330 м -25.0 -28.0 76 -25 -25 прохладно 1027.0 991.7
штиль 0 5000 м дым 2/2 330 м -26.0 -28.0 83 -26 -26 по сезону 1028.0 992.5
штиль 0 2800 м дымка 5/5 330 м -23.0 -26.0 76 -23 -23 тепло 1028.0 993.0
штиль 0 2100 м переохл. туман 5/5 540 м
[?/?]
-25.0 -28.0 76 -25 -25 по сезону 1028.0 992.7
ЮЗ 1 3900 м дымка ?/? -24.0 -27.0 76 -27 -27 по сезону 1029.0 993.8
З 1 2800 м дымка 8/8 420 м -22.0 -24.0 84 -25 -25 тепло 1028.0 993.1
З 1 2900 м дымка 5/5 90 м
[Frnb]
-22.0 -25.0 77 -25 -25 по сезону 1029.0 994.1
штиль 0 3200 м дымка 5/5 480 м -22.0 -23.0 92 -22 -22 по сезону 1029.0 994.1
Ю 2 1500 м дымка ?/? -23.0 -24.0 91 -29 -29 по сезону 1029.0 993.9
Ю 2 1500 м дымка 5/5 420 м -22.0 -24.0 84 -28 -28 холодно 1029.0 994.1
Ю 1 1100 м дымка 2/2 150 м
[Frnb]
-20.0 -21.0 92 -23 -23 по сезону 1029.0 994.3
штиль 0 2100 м дымка 2/2 300 м -19.0 -20.0 92 -19 -19 тепло 1028.0 993.5
штиль 0 3500 м дымка нет нижн обл -17.0 -19.0 84 -17 -17 по сезону 1028.0 993.8
штиль 0 3100 м дымка нет нижн обл -16.0 -18.0 85 -16 -16 тепло 1027.0 992.9
С 1 5000 м дымка нет нижн обл -16.0 -18.0 85 -19 -19 тепло 1027.0 992.9
С 1 10 км нет нижн обл -16.0 -19.0 78 -19 -19 по сезону 1027.0 992.9
СЗ 2 9000 м нет нижн обл -19.0 -21.0 84 -25 -25 по сезону 1027.0 992.5
С 1 5000 м дымка нет нижн обл -20.0 -22.0 84 -23 -23 тепло 1027.0 992.4
З 1 7000 м дым нет нижн обл -21.0 -24.0 77 -24 -24 прохладно 1027.0 992.3
З 1 3300 м дым 2/2 90 м
[Frnb]
-24.0 -26.0 83 -27 -27 по сезону 1026.0 990.9
штиль 0 50 м дым ?/? -23.0 -25.0 84 -23 -23 тепло 1026.0 991.0
ЮЗ 1 1700 м дым ?/? -25.0 -28.0 76 -29 -29 холодно 1026.0 990.7
ЮЗ 1 300 м дым 10/10 120 м
[St]
-25.0 -28.0 76 -29 -29 по сезону 1026.0 990.7
ЮЗ 1 800 м дым 8/8 90 м
[St]
-26.0 -29.0 76 -30 -30 по сезону 1025.0 989.6
З 1 2800 м дым 5/5 120 м
[Frnb]
-28.0 -30.0 83 -32 -32 опасность
обморожения
1025.0 989.4
Ю 1 3000 м дым 8/8 150 м
[St]
-27.0 -29.0 83 -31 -31 опасность
обморожения
1025.0 989.5
ЮЗ 1 3200 м дым 5/5 210 м -27.0 -30.0 76 -31 -31 опасность
обморожения
1025.0 989.5
ЮЗ 1 2100 м дым 5/5 180 м
[Frnb]
-26.0 -28.0 83 -30 -30 холодно 1025.0 989.6
ЮЗ 1 2200 м дым 8/8 120 м
[St]
-26.0 -29.0 76 -30 -30 по сезону 1024.0 988.7
Ю 1 2200 м дым 8/8 210 м -24.0 -26.0 83 -27 -27 тепло 1024.0 989.0
ЮВ 1 2000 м дым 8/8 210 м
[St]
-23.0 -26.0 76 -26 -26 прохладно 1024.0 989.1
ЮЗ 1 3000 м дым 8/8 210 м -25.0 -27.0 83 -29 -29 по сезону 1024.0 988.8
СЗ 1 2300 м дым 8/8 180 м
[St]
-25.0 -28.0 76 -29 -29 по сезону 1024.0 988.8
штиль 0 2100 м дым 8/8 180 м
[St]
-24.0 -27.0 76 -24 -24 по сезону 1024.0 989.0
СЗ 1 2600 м дым 8/8 330 м -23.0 -26.0 76 -26 -26 по сезону 1024.0 989.1
штиль 0 2700 м дым 5/5 330 м -21.0 -24.0 77 -21 -21 тепло 1023.0 988.4
штиль 0 2400 м дым 5/5 330 м -19.0 -21.0 84 -19 -19 по сезону 1022.0 987.7
штиль 0 2800 м дым нет нижн обл -18.0 -20.0 84 -18 -18 тепло 1022.0 987.8
штиль 0 2600 м дым нет нижн обл -18.0 -21.0 77 -18 -18 тепло 1021.0 986.9
З 1 2700 м дым нет нижн обл -19.0 -21.0 84 -22 -22 по сезону 1021.0 986.7
З 1 2600 м дым нет нижн обл -20.0 -22.0 84 -23 -23 по сезону 1022.0 987.6
З 1 2800 м дым нет нижн обл -21.0 -23.0 84 -24 -24 тепло 1021.0 986.5
штиль 0 2400 м дымка нет нижн обл -22.0 -24.0 84 -22 -22 по сезону 1021.0 986.3
штиль 0 2200 м дымка нет нижн обл -23.0 -26.0 76 -23 -23 по сезону 1021.0 986.2
штиль 0 1600 м дымка нет нижн обл -23.0 -26.0 76 -23 -23 тепло 1021.0 986.2
штиль 0 1500 м местами туман поземный нет нижн обл -23.0 -26.0 76 -23 -23 по сезону 1021.0 986.2
штиль 0 1000 м местами туман поземный нет нижн обл -25.0 -27.0 83 -25 -25 по сезону 1020.0 985.0
Ю 2 1200 м местами туман поземный нет нижн обл -23.0 -25.0 84 -29 -29 по сезону 1020.0 985.2
штиль 0 800 м переохл. туман нет нижн обл -25.0 -28.0 76 -25 -25 прохладно 1020.0 985.0
штиль 0 1100 м дымка нет нижн обл -24.0 -26.0 83 -24 -24 по сезону 1020.0 985.1
штиль 0 1500 м дымка нет нижн обл -21.0 -23.0 84 -21 -21 тепло 1020.0 985.5
штиль 0 1900 м дымка нет нижн обл -20.0 -22.0 84 -20 -20 по сезону 1021.0 986.6
ЮВ 2 2600 м дымка нет нижн обл -19.0 -21.0 84 -25 -25 по сезону 1021.0 986.7
ЮВ 1 3200 м дымка 5/5 750 м -18.0 -21.0 77 -21 -21 тепло 1021.0 986.9
З 1 3400 м дымка нет нижн обл -18.0 -20.0 84 -21 -21 по сезону 1022.0 987.8
З 1 3200 м дымка нет нижн обл -18.0 -20.0 84 -21 -21 по сезону 1022.0 987.8
З 2 3000 м дымка 5/5 1290 м -18.0 -20.0 84 -23 -23 тепло 1023.0 988.8
З 1 3900 м дымка нет нижн обл -17.0 -19.0 84 -20 -20 по сезону 1023.0 988.9
штиль 0 4000 м дымка 5/5 1290 м -16.0 -19.0 78 -16 -16 тепло 1023.0 989.1
штиль 0 3400 м дымка нет нижн обл -15.0 -18.0 78 -15 -15 тепло 1022.0 988.2
штиль 0 5000 м дым нет нижн обл -15.0 -18.0 78 -15 -15 по сезону 1021.0 987.3
СЗ 1 5000 м дым нет нижн обл -14.0 -17.0 78 -16 -16 тепло 1021.0 987.4
штиль 0 7000 м нет нижн обл -13.0 -18.0 66 -13 -13 тепло 1021.0 987.5
штиль 0 5000 м дым нет нижн обл -13.0 -18.0 66 -13 -13 по сезону 1020.0 986.6
З 1 5000 м дым нет нижн обл -13.0 -18.0 66 -15 -15 тепло 1021.0 987.5
З 1 6000 м нет нижн обл -14.0 -18.0 72 -16 -16 тепло 1021.0 987.4
З 1 6000 м дым нет нижн обл -14.0 -17.0 78 -16 -16 по сезону 1021.0 987.4
Ю 1 1700 м дым нет нижн обл -15.0 -19.0 71 -18 -18 по сезону 1020.0 986.3
ЮЗ 2 3900 м дым нет нижн обл -15.0 -18.0 78 -20 -20 тепло 1020.0 986.3
штиль 0 3300 м дым нет нижн обл -15.0 -18.0 78 -15 -15 по сезону 1020.0 986.3
В 1 1200 м дымка нет нижн обл -16.0 -18.0 85 -19 -19 по сезону 1019.0 985.2
штиль 0 1200 м дымка нет нижн обл -16.0 -18.0 85 -16 -16 тепло 1019.0 985.2
С 2 1200 м дымка ?/? -17.0 -19.0 84 -22 -22 по сезону 1019.0 985.1
Ю 2 1200 м дымка нет нижн обл -14.0 -16.0 85 -19 -19 по сезону 1018.0 984.5
ЮВ 1 2100 м дымка нет нижн обл -13.0 -16.0 78 -15 -15 тепло 1018.0 984.6
штиль 0 2400 м дымка нет нижн обл -12.0 -15.0 78 -12 -12 тепло 1018.0 984.8
Ю 1 3300 м дым нет нижн обл -12.0 -15.0 78 -14 -14 тепло 1019.0 985.7
ЮВ 2 2700 м дым 5/5 1260 м -12.0 -15.0 78 -17 -17 тепло 1019.0 985.7
В 2 2600 м слаб. снег нет нижн обл -11.0 -13.0 85 -16 -16 по сезону 1019.0 985.9
ЮВ 2 2700 м дым нет нижн обл -11.0 -13.0 85 -16 -16 тепло 1018.0 984.9
штиль 0 9000 м нет нижн обл -15.0 -18.0 78 -15 -15 тепло 1029.0 995.0
Местоположение метеостанции Абакан (Хакасия, Россия): широта 53.73 долгота 91.38 высота над уровнем моря 253 м.
В архиве по умолчанию представлена погода в Абакане за последнюю неделю. Архивные данные за месяц целиком и за предыдущие месяцы, начиная с января 2011 года, Вы можете получить, выбрав интересующий диапазон дат из раскрывающегося списка и нажав кнопку "Найти!".
*Определитесь, кто Вы:
Внимание! Время в таблицах - всемирное. Для получения местного времени необходимо прибавить поправку, которая равна 7 ч.
Смотрите также архив погоды в соседних городах и на ближайших метеорологических станциях:
Партнеры нашего сайта:      
Пояснения к столбцам:
  • Ветер - указаны скорость ветра в м/с - средняя за 10 мин, порывы в срок и между сроками (в фигурных скобках) и направление, откуда дует ветер: С - северный,
  • СВ - северо-восточный, В - восточный, ЮВ - юго-восточный, Ю - южный, ЮЗ - юго-западный, З - западный, СЗ - северо-западный.
  • Видимость - горизонтальная дальность видимости в метрах или километрах. При видимости от 1 до 10 км при отсутствии осадков обычно наблюдается дымка, при ухудшении видимости до 1 км и менее - туман. В сухую погоду видимость может ухудшаться дымом, пылью или мглою.
  • Явления - указаны атмосферные явления, наблюдавшиеся в срок или в последний час перед сроком; фигурными скобками обозначены явления, наблюдавшиеся между сроками (за 1-3 часа до срока); квадратными скобками обозначены град или гололедные отложения с указанием их диаметра в мм.
  • Облачность - указаны через наклонную черту общая и нижняя облачность в баллах и высота нижней границы облаков в метрах; квадратными скобками обозначены формы облаков: Ci - перистые, Cs - перисто-слоистые, Cc - перисто-кучевые, Ac - высококучевые, As - высокослоистые, Sc - слоисто-кучевые, Ns - слоисто-дождевые, Cu - кучевые, Cb - кучево-дождевые. Подробнее классификацию облаков см. в Атласе облаков (PDF).
  • T - Температура воздуха - температура, измеренная на высоте 2 м над землей.
  • Td - Температура точки росы - температура, при понижении до которой содержащийся в воздухе водяной пар достигнет насыщения.
  • f - Относительная влажность воздуха - влажноcть воздуха, измеренная на высоте 2 м над землей.
  • Te - Эффективная температура - температура, которую ощущает одетый по сезону человек в тени. Характеристика душности погоды. При расчете учитывается влияние влажности воздуха и скорости ветра на теплоощущения человека.
  • Tes - Эффективная температура на солнце - температура, которую ощущает человек, с поправкой на солнечный нагрев. Характеристика знойности погоды. Зависит от высоты солнца над горизонтом, облачности и скорости ветра. Ночью, в пасмурную погоду, а также при ветре 12 м/с и более поправка равна нулю.
  • P - Атмосферное давление - приведенное к уровню моря атмосферное давление.
  • Po - Атмосферное давление - измеренное на уровне метеостанции атмосферное давление.
  • Tmin - Минимальная температура - минимум температуры воздуха на высоте 2 м над землей.
  • Tmax - Максимальная температура - максимум температуры воздуха на высоте 2 м над землей.
  • R - Количество осадков - Количество выпавших осадков за период времени, мм. При наведении курсора мыши на число - период времени, за который выпало указанное количество осадков.
  • R24 - Количество осадков - Количество выпавших осадков за 24 часа, мм.
  • S - Снежный покров - Высота снежного покрова, см. При наведении курсора мыши на число - состояние снежного покрова и степень покрытия местности в баллах.